Location: Chiroubles
(46.1812°N, 4.6660°E)
Time: 10:49:06
(UTC+00:00)

N. Korean satellite - Pass Details

Date: 28 October 2020
Orbit: 453 x 503 km, 97.2° (Epoch: 03 December)

Event Time Altitude Azimuth Distance (km) Brightness Sun altitude
Rises 17:07:58 0° 197° (SSW) 2,545 10.7 -6.7°
Reaches altitude 10° 17:10:22 10° 213° (SSW) 1,660 10.0 -7.2°
Maximum altitude 17:13:12 22° 266° (W) 1,098 9.6 -7.6°
Drops below altitude 10° 17:16:00 10° 318° (NW) 1,648 9.7 -8.1°
Sets 17:18:24 0° 335° (NNW) 2,521 10.4 -8.5°
